Station CRTA1 - Cedar Point, AL Image indicating link to RSS feed of recent meteorological observations for station CRTA1


Conditions at CRTA1 as of
(3:00 am CDT)
0800 GMT on 07/23/2024:
Note: This report is more than two hours old
     

Click on the graph icon in the table below to see a time series plot of the last five days of that observation.

5-day plot - Atmospheric Pressure Atmospheric Pressure (PRES):30.44 in
5-day plot - Pressure Tendency Pressure Tendency (PTDY):+0.01 in ( Rising )
5-day plot - Air Temperature Air Temperature (ATMP): 88.5 °F
Previous observations
TIME
(CDT)
5-day plot - Wind Direction
WDIR
 
5-day plot - Wind Speed
WSPD
kts
5-day plot - Wind Gust
GST
kts
5-day plot - Wave Height
WVHT
ft
5-day plot - Dominant Wave Period
DPD
sec
5-day plot - Average Wave Period
APD
sec
5-day plot - Mean Wave Direction
MWD
 
5-day plot - Atmospheric Pressure
PRES
in
5-day plot - Pressure Tendency
PTDY
in
5-day plot - Air Temperature
ATMP
°F
5-day plot - Water Temperature
WTMP
°F
5-day plot - Dew Point
DEWP
°F
5-day plot - Salinity
SAL
psu
5-day plot - Visibility
VIS
nmi
5-day plot - Tide (above MLLW)
TIDE
ft
2024-07-23 02:30 am-------30.43- 88.5-----
2024-07-23 02:00 am-------30.44+0.00 88.5-----
2024-07-23 01:30 am-------30.44- 88.3-----
2024-07-23 12:30 am-------30.44- 88.5-----
2024-07-23 12:00 am-------30.43+0.00 88.7-----
2024-07-22 11:30 pm-------30.45- 88.5-----
2024-07-22 11:00 pm-------30.44+0.02 88.7-----
2024-07-22 10:30 pm-------30.45- 88.7-----
2024-07-22 10:00 pm-------30.45+0.05 88.9-----
2024-07-22 09:30 pm-------30.44- 88.7-----
2024-07-22 09:00 pm-------30.43+0.03 88.5-----
2024-07-22 08:30 pm-------30.42- 88.5-----
2024-07-22 08:00 pm-------30.42+0.03 88.5-----
2024-07-22 07:30 pm-------30.41- 88.3-----
2024-07-22 07:00 pm-------30.40+0.00 88.5-----
2024-07-22 06:30 pm-------30.39- 88.5-----
2024-07-22 06:00 pm-------30.40-0.02 88.2-----
2024-07-22 05:30 pm-------30.39- 88.3-----
2024-07-22 05:00 pm-------30.39-0.05 88.0-----
2024-07-22 04:30 pm-------30.40- 87.6-----
2024-07-22 04:00 pm-------30.40-0.05 87.4-----
2024-07-22 03:30 pm-------30.41- 87.3-----
2024-07-22 03:00 pm-------30.42-0.03 87.3-----
2024-07-22 02:30 pm-------30.43- 87.3-----
2024-07-22 02:00 pm-------30.44-0.02 86.9-----
2024-07-22 01:30 pm-------30.45- 86.7-----
2024-07-22 01:00 pm-------30.45+0.00 86.7-----
2024-07-22 12:30 pm-------30.45- 86.5-----
2024-07-22 12:00 pm-------30.45- 86.5-----
2024-07-22 11:30 am-------30.46- 86.4-----
2024-07-22 11:00 am-------30.46- 86.4-----
2024-07-22 10:30 am-------30.45- 85.8-----
2024-07-22 10:00 am-------30.45- 86.0-----
2024-07-22 09:30 am-------30.45- 85.8-----